Regional Weather Roundup
Issued by NWS

Home | Current Version | Previous Version | Text Only | Print | Product List | Glossary Off
Versions: 1 2 3 4 5 6 7 8 9 10 11 12 13 14 15 16 17 18 19 20 21 22 23 24 25 26 27 28 29 30 31 32 33 34 35 36 37 38 39 40 41 42 43 44 45 46 47 48 49 50

000
ASUS43 KFSD 031410
RWRSD

WEATHER ROUNDUP FOR SOUTH DAKOTA
NATIONAL WEATHER SERVICE SIOUX FALLS SD
800 AM CST TUE MAR 03 2015

NOTE: "FAIR" INDICATES FEW OR NO CLOUDS BELOW 12,000 FEET WITH NO
SIGNIFICANT WEATHER AND/OR OBSTRUCTIONS TO VISIBILITY.


SDZ001>005-009-010-012>017-031500-
NORTHWEST AND NORTH CENTRAL SOUTH DAKOTA

CITY           SKY/WX    TMP DP  RH WIND       PRES   REMARKS
BUFFALO          N/A     10   0  63 NW25      29.92R WCI -11
FAITH            N/A     11   0  61 NW32      29.97R WCI -12
MOBRIDGE       CLOUDY    12   0  58 N30G37    29.93R WCI -10
$$

SDZ012>016-024>037-041>051-057-063-072>074-031500-
SOUTHWEST AND SOUTH CENTRAL SOUTH DAKOTA

CITY           SKY/WX    TMP DP  RH WIND       PRES   REMARKS
RAPID CTY ARPT CLOUDY    13   7  77 NW32G40   29.96S WCI  -9
PIERRE         CLOUDY    14   7  73 N26G38    29.94R BLWGSNOWWCI  -6
CUSTER         LGT SNOW   7  -2  66 N15G29    29.77R WCI -10
ELLSWORTH AFB  FLURRIES  13   7  78 NW26G35   29.95S WCI  -7
PHILIP         CLOUDY    17  11  77 NW23      29.99R WCI  -1
PINE RIDGE     LGT SNOW  15   8  73 N18G28    29.93R WCI  -2
SPEARFISH      LGT SNOW  10   7  85 W15G22    29.97S WCI  -6
WINNER         SNOW      18  12  77 N23G35    29.89R VSB 1/2 WCI   0
$$

SDZ004>011-016>023-039-040-031500-
NORTHEAST SOUTH DAKOTA

CITY           SKY/WX    TMP DP  RH WIND       PRES   REMARKS
ABERDEEN       LGT SNOW  17   9  70 N25G32    29.87R WCI  -1
WATERTOWN      LGT SNOW  19  15  84 N24G31    29.71R VSB 3/4 WCI   2
SISSETON         N/A     18  16  92 N24G32    29.77R WCI   0
$$

SDZ017-020-022-023-036>040-048>070-031500-
SOUTHEAST SOUTH DAKOTA

CITY           SKY/WX    TMP DP  RH WIND       PRES   REMARKS
SIOUX FALLS    LGT SNOW  25  22  88 W5        29.70R VSB 1   WCI  19
HURON          LGT SNOW  18  15  88 N32G44    29.82R VSB 3/4 WCI  -2
CHAMBERLAIN    SNOW      17  14  87 N26G38    29.87R VSB 1/2 WCI  -2
MITCHELL       SNOW      21  18  88 N31G38    29.79R VSB 1/2 WCI   2
YANKTON        MOCLDY    28  25  86 W9        29.73R WCI  20
$$

ABBREVIATIONS USED IN REMARKS
   TC - TEMPERATURE IN CELSIUS
  WCI - WIND CHILL INDEX
   HX - HEAT INDEX
  VSB - VISIBILITY




USA.gov is the U.S. government's official web portal to all federal, state and local government web resources and services.